Weather History for KLND - March, 2012

Change the Weather History Date:

Sunday, March 11, 2012

  Actual Average Record
Temperature  
Mean Temperature 45 °F 34 °F  
Max Temperature 62 °F 46 °F 70 °F (1900)
Min Temperature 27 °F 22 °F -11 °F (1956)
Degree Days  
Heating Degree Days 20 31  
Month to date heating degree days 323 361  
Since 1 July heating degree days 5666 6065  
Cooling Degree Days 0 0  
Month to date cooling degree days 0 0  
Year to date cooling degree days 0 0  
Moisture  
Dew Point 16 °F    
Average Humidity 36    
Maximum Humidity 58    
Minimum Humidity 14    
Precipitation  
Precipitation 0.00 in 0.04 in 0.58 in (1893)
Month to date precipitation 0.36 0.32  
Year to date precipitation 1.67 1.31  
Snow  
Snow 0.00 in 0.40 in - ()
Month to date snowfall 7.5 4.7  
Since 1 July snowfall 59.2 58.3  
Snow Depth 0.00 in    
Sea Level Pressure  
Sea Level Pressure 29.64 in    
Wind  
Wind Speed 6 mph (SSW)    
Max Wind Speed 16 mph    
Max Gust Speed 29 mph    
Visibility 10 miles    
Events      
T = Trace of Precipitation, MM = Missing Value Source: NWS Daily Summary

Daily Weather History Graph

Daily Weather History Graph

Search for Another Location

Airport or City:

Trip Planner

Search our weather history database for the weather conditions in past years. The results will help you decide how hot, cold, wet, or windy it might be!

Date:

Astronomy

Mar. 11, 2012 Rise Set
Actual Time 7:32 AM MDT 7:17 PM MDT
Civil Twilight 7:04 AM MDT 7:45 PM MDT
Nautical Twilight 6:31 AM MDT 8:18 PM MDT
Astronomical Twilight 5:58 AM MDT 8:51 PM MDT
Moon 11:53 PM MDT (3/11) 9:03 AM MDT (3/11)
Length of Visible Light 12h 40m
Length of Day
11h 44m
Waning Gibbous, 85% of the Moon is Illuminated
Mar 11
Waning Gibbous
Mar 14
Last Quarter
Mar 22
New
Mar 30
First Quarter
Apr 6
Full

Hourly Weather History & Observations

Time (MDT) Temp. Windchill Dew Point Humidity Pressure Visibility Wind Dir Wind Speed Gust Speed Precip Events Conditions
12:53 AM 39.9 °F - 17.1 °F 40% 29.71 in 10.0 mi Calm Calm - N/A   Clear
1:53 AM 36.0 °F 32.1 °F 18.0 °F 48% 29.71 in 10.0 mi WNW 4.6 mph - N/A   Clear
3:53 AM 34.0 °F 31.0 °F 18.0 °F 52% 29.70 in 10.0 mi SSW 3.5 mph - N/A   Clear
4:53 AM 32.0 °F 27.5 °F 18.0 °F 56% 29.71 in 10.0 mi ESE 4.6 mph - N/A   Clear
5:53 AM 34.0 °F 29.8 °F 17.1 °F 50% 29.70 in 10.0 mi SE 4.6 mph - N/A   Clear
6:53 AM 30.0 °F - 18.0 °F 61% 29.73 in 10.0 mi Calm Calm - N/A   Clear
7:53 AM 30.9 °F 27.5 °F 17.1 °F 57% 29.75 in 10.0 mi SE 3.5 mph - N/A   Clear
8:53 AM 37.0 °F - 18.0 °F 46% 29.74 in 10.0 mi Calm Calm - N/A   Clear
9:53 AM 44.1 °F 42.5 °F 15.1 °F 31% 29.72 in 10.0 mi SE 3.5 mph - N/A   Clear
10:53 AM 48.9 °F - 17.1 °F 28% 29.69 in 10.0 mi East 3.5 mph - N/A   Clear
11:53 AM 52.0 °F - 15.1 °F 23% 29.69 in 10.0 mi East 3.5 mph - N/A   Clear
12:53 PM 57.0 °F - 18.0 °F 22% 29.62 in 10.0 mi SE 4.6 mph - N/A   Clear
1:53 PM 57.9 °F - 12.9 °F 17% 29.58 in 10.0 mi Variable 4.6 mph - N/A   Clear
2:53 PM 61.0 °F - 14.0 °F 16% 29.55 in 10.0 mi Variable 5.8 mph 16.1 mph N/A   Clear
3:53 PM 62.1 °F - 14.0 °F 15% 29.54 in 10.0 mi WSW 16.1 mph 25.3 mph N/A   Clear
4:53 PM 60.1 °F - 14.0 °F 16% 29.55 in 10.0 mi WSW 12.7 mph - N/A   Clear
5:53 PM 57.9 °F - 16.0 °F 19% 29.54 in 10.0 mi West 13.8 mph - N/A   Clear
6:53 PM 53.1 °F - 12.9 °F 20% 29.58 in 10.0 mi WSW 15.0 mph - N/A   Clear
7:53 PM 52.0 °F - 12.0 °F 20% 29.60 in 10.0 mi NW 9.2 mph - N/A   Clear
8:53 PM 50.0 °F - 14.0 °F 24% 29.60 in 10.0 mi West 6.9 mph 16.1 mph N/A   Clear
9:53 PM 50.0 °F - 14.0 °F 24% 29.59 in 10.0 mi Calm Calm - N/A   Clear
10:53 PM 51.1 °F - 12.9 °F 22% 29.58 in 10.0 mi WNW 5.8 mph 24.2 mph N/A   Clear
11:53 PM 48.9 °F - 15.1 °F 26% 29.57 in 10.0 mi ENE 8.1 mph 19.6 mph N/A   Clear
12:53 AM 46.9 °F - 16.0 °F 29% 29.57 in 10.0 mi Calm Calm - N/A   Clear